Location: *
(40.9167°N, 9.5000°E)
Time: 07:03:26
(UTC+00:00)

STARLINK-1188 - Pass Details

Date: 09 April 2020
Orbit: 378 x 381 km, 53.0° (Epoch: 04 June)

Event Time Altitude Azimuth Distance (km) Brightness Sun altitude
Rises 19:55:59 0° 310° (NW) 2,223 8.2 -21.8°
Reaches altitude 10° 19:58:01 10° 313° (NW) 1,374 6.8 -22.1°
Enters shadow 20:00:07 39° 325° (NW) 578 4.2 -22.4°
